TimePST,TemperatureF,Dew PointF,Humidity,Sea Level PressureIn,VisibilityMPH,Wind Direction,Wind SpeedMPH,Gust SpeedMPH,PrecipitationIn,Events,Conditions,WindDirDegrees,DateUTC
12:56 AM,25.0,14.0,63,30.23,10.0,North,6.9,-,N/A,,Unknown,350,2013-02-01 08:56:00
1:56 AM,28.0,16.0,61,30.23,10.0,NNW,8.1,-,N/A,,Clear,330,2013-02-01 09:56:00
2:56 AM,24.1,14.0,65,30.24,10.0,NNW,6.9,-,N/A,,Clear,330,2013-02-01 10:56:00
3:56 AM,24.8,15.8,69,30.26,10.0,NW,4.6,-,N/A,,Clear,320,2013-02-01 11:56:00
4:56 AM,26.1,16.0,66,30.24,10.0,NW,9.2,-,N/A,,Clear,320,2013-02-01 12:56:00
5:56 AM,21.0,12.9,71,30.26,10.0,NW,6.9,-,N/A,,Clear,320,2013-02-01 13:56:00
6:56 AM,21.9,12.9,68,30.30,10.0,NNW,5.8,-,N/A,,Clear,330,2013-02-01 14:56:00
7:56 AM,28.9,18.0,64,30.32,10.0,NNW,3.5,-,N/A,,Clear,330,2013-02-01 15:56:00
8:56 AM,39.9,19.9,45,30.32,10.0,Calm,Calm,-,N/A,,Clear,0,2013-02-01 16:56:00
9:56 AM,48.9,18.0,29,30.30,10.0,NNW,4.6,-,N/A,,Clear,330,2013-02-01 17:56:00
10:56 AM,55.0,18.0,23,30.28,10.0,Calm,Calm,-,N/A,,Clear,0,2013-02-01 18:56:00
11:56 AM,59.0,18.0,20,30.25,10.0,Calm,Calm,-,N/A,,Clear,0,2013-02-01 19:56:00
12:56 PM,60.1,15.1,17,30.21,10.0,Calm,Calm,-,N/A,,Clear,0,2013-02-01 20:56:00
1:56 PM,62.1,14.0,15,30.18,10.0,Calm,Calm,-,N/A,,Clear,0,2013-02-01 21:56:00
2:56 PM,63.0,12.9,14,30.17,10.0,Calm,Calm,-,N/A,,Clear,0,2013-02-01 22:56:00
3:56 PM,62.1,12.9,15,30.16,10.0,South,4.6,-,N/A,,Clear,180,2013-02-01 23:56:00
4:56 PM,55.9,14.0,19,30.18,10.0,SSW,3.5,-,N/A,,Clear,200,2013-02-02 00:56:00
5:56 PM,46.9,14.0,27,30.24,10.0,SE,3.5,-,N/A,,Clear,140,2013-02-02 01:56:00
6:56 PM,39.9,12.0,32,30.28,10.0,Calm,Calm,-,N/A,,Clear,0,2013-02-02 02:56:00
7:56 PM,44.1,16.0,32,30.29,10.0,WSW,3.5,-,N/A,,Clear,240,2013-02-02 03:56:00
8:56 PM,37.0,14.0,39,30.30,10.0,North,4.6,-,N/A,,Clear,10,2013-02-02 04:56:00
9:56 PM,36.0,12.9,39,30.29,10.0,WNW,6.9,-,N/A,,Clear,290,2013-02-02 05:56:00
10:56 PM,33.1,14.0,46,30.29,10.0,NNW,6.9,-,N/A,,Clear,340,2013-02-02 06:56:00
11:56 PM,32.0,12.9,45,30.29,10.0,North,4.6,-,N/A,,Clear,350,2013-02-02 07:56:00